Hourly Data Report for March 09, 2012

BAGOTVILLE A
QUEBEC

48°20'00.000" N
71°00'00.000" W
159.10 m
7060400
71727
YBG

Download Data

Hourly Data (March 2012)
Hourly Data Report for March 9, 2012
TIME
LST
Temp Definition
°C
Dew Point Definition
°C
Rel Hum Definition
%
Precip. Amount Definition
mm

Wind Dir Definition
10's deg

Wind Spd Definition
km/h
Visibility Definition
km
Stn Press Definition
kPa
Hmdx Definition


Wind Chill Definition


Weather Definition


00:00 -3.1 -4.1 93   30 39 1.6 98.07   -11 Snow Showers,Blowing Snow
01:00 -4.6 -8.1 76   30 35 6.4 98.23   -13 Blowing Snow
02:00 -6.2 -9.7 76   30 43 6.4 98.43   -16 Blowing Snow
03:00 -7.4 -10.5 78   30 30 6.4 98.60   -16 Snow Showers,Blowing Snow
04:00 -8.1 -10.6 82   30 33 1.6 98.75   -17 Snow Showers,Blowing Snow
05:00 -8.9 -12.4 76   30 28 1.6 98.88   -18 Snow Showers,Blowing Snow
06:00 -9.3 -13.8 70   30 30 24.1 99.01   -19 Mostly Cloudy
07:00 -9.9 -13.6 74   30 33 16.1 99.15   -20 Mostly Cloudy
08:00 -9.8 -13.0 77   30 32 40.2 99.25   -20 Mainly Clear
09:00 -9.7 -13.4 74   31 26 40.2 99.37   -19 Mainly Clear
10:00 -9.0 -15.3 60   30 24 40.2 99.48   -17 Mainly Clear
11:00 -8.0 -12.9 68   30 28 40.2 99.57   -17 Mainly Clear
12:00 -6.7 -12.5 63   31 24 40.2 99.60   -14 Mainly Clear
13:00 -6.0 -13.3 56   30 26 40.2 99.63   -14 Mainly Clear
14:00 -5.1 -12.8 55   30 24 40.2 99.63   -12 Mainly Clear
15:00 -4.9 -11.6 59   30 26 40.2 99.68   -12 Mainly Clear
16:00 -5.0 -13.1 53   30 22 40.2 99.76   -12 Mainly Clear
17:00 -5.5 -13.9 52   30 20 40.2 99.85   -12 Mainly Clear
18:00 -6.9 -14.2 56   30 11 40.2 99.97   -12 Mainly Clear
19:00 -7.0 -13.3 61   28 13 24.1 100.06   -13 Mainly Clear
20:00 -9.0 -13.8 68   28 11 24.1 100.17   -14 Mainly Clear
21:00 -9.1 -14.4 65   30 13 24.1 100.25   -15 Mainly Clear
22:00 -9.7 -15.3 64   31 15 24.1 100.34   -16 Mainly Clear
23:00 -10.5 -15.4 67   29 15 24.1 100.41   -17 Mainly Clear

Notes on Data Quality.

Legend

  • E = Estimated
  • M = Missing
  • NA = Not Available*
  • [empty] = Indicates an unobserved value
Date modified: